Theta_e
313 312 312 312 312 311 310 308 307 306 305 305 304 305 306 307 308 311 317 314 320 321 329 334 338 341 343 347 345 345 359 359 357 361 362 351 355 351 347 349 347 347 345 345 349
312 312 312 312 312 311 311 310 308 307 306 305 305 307 307 308 311 318 313 316 324 324 327 339 339 340 341 349 346 353 358 358 351 357 361 355 354 353 351 351 350 347 345 345 349
312 312 312 312 312 312 312 311 308 307 306 306 307 308 308 308 319 318 321 316 319 319 318 326 335 339 343 342 347 352 358 354 354 353 353 355 357 350 351 353 349 349 347 345 347
311 311 312 312 312 311 311 311 309 308 306 307 309 309 308 313 316 325 320 319 318 316 318 322 329 336 338 338 344 350 349 350 349 350 350 354 354 352 350 350 347 346 345 345 348
311 311 312 312 313 311 311 311 310 308 306 308 310 310 309 317 318 315 318 316 316 321 324 327 337 340 337 334 346 350 347 347 347 345 348 349 353 351 349 347 347 346 346 345 345
310 311 312 312 313 310 310 310 310 307 307 309 311 310 316 312 312 320 318 315 322 318 322 327 338 339 334 331 332 336 344 344 343 342 348 350 353 350 348 347 347 347 346 344 344
311 311 311 313 313 310 309 310 309 307 307 310 312 315 320 313 317 324 323 323 321 322 330 329 333 337 330 330 329 330 345 344 343 339 352 351 354 351 347 347 348 347 346 345 344
312 311 312 313 313 310 310 310 308 309 310 311 313 320 313 312 318 317 319 317 319 324 329 334 332 329 329 329 327 328 328 331 333 334 348 346 359 351 347 347 348 347 346 346 344
312 311 313 313 313 310 310 310 314 313 310 311 317 321 321 323 318 317 317 317 316 319 326 331 327 325 328 329 325 324 329 329 329 335 347 347 355 351 348 348 348 347 347 346 345
312 312 313 313 312 309 311 315 319 316 316 319 319 319 320 323 318 317 316 317 314 319 321 324 321 322 322 324 328 327 328 326 329 335 348 349 355 352 349 349 349 348 347 347 346
312 312 312 313 311 310 313 316 308 312 320 323 323 321 321 319 318 318 316 314 314 316 317 325 323 322 324 325 327 326 326 326 326 329 349 348 355 353 351 350 350 349 349 348 346
312 311 312 313 311 311 314 314 313 313 311 312 316 318 319 321 315 315 317 315 315 314 316 316 325 322 322 325 328 328 327 325 324 331 347 350 350 352 351 351 350 350 350 350 347
312 311 311 312 312 317 315 317 315 315 311 312 313 314 314 313 314 314 313 313 315 314 314 314 316 327 327 325 325 325 324 322 324 344 349 352 352 349 348 349 349 350 350 349 348
312 311 311 312 314 313 316 317 316 315 309 313 316 315 314 313 313 314 314 313 313 313 313 314 316 320 327 326 323 319 322 323 324 338 353 349 357 355 351 351 350 349 350 349 347
312 311 310 311 312 313 319 317 317 313 316 317 315 316 313 312 314 316 315 314 314 314 312 314 317 318 320 321 323 323 323 322 324 334 344 347 351 349 354 355 350 349 350 349 347
312 310 311 311 311 318 317 316 315 312 318 317 316 315 314 314 315 316 315 314 314 315 314 313 315 315 316 318 321 323 324 322 321 325 341 342 343 349 357 354 349 351 349 349 347
311 312 312 311 313 316 314 312 314 315 316 316 316 315 314 314 315 314 314 313 310 313 312 313 314 316 317 319 320 324 320 323 323 321 323 328 342 342 347 346 349 350 349 348 347
311 313 316 316 314 313 315 313 319 320 314 315 314 313 315 314 314 314 313 312 312 310 310 311 312 317 318 317 318 323 320 321 326 323 323 325 343 340 338 346 344 345 350 350 345
311 313 316 318 316 313 310 316 318 314 314 314 314 314 314 315 317 316 313 312 316 315 310 315 316 317 319 319 321 322 324 320 321 320 320 321 323 328 337 342 345 345 350 349 347
311 314 317 319 320 315 311 316 315 314 313 313 314 315 314 315 317 316 314 313 315 314 312 315 314 314 317 317 318 320 320 324 319 325 325 323 328 325 347 345 345 346 348 348 347
314 316 320 319 319 309 313 314 313 313 313 313 313 314 314 314 315 315 314 314 313 314 313 313 310 311 316 316 317 317 318 317 317 318 322 324 324 336 341 342 340 345 345 346 347
311 320 321 316 312 310 315 317 313 314 311 312 313 313 314 314 315 317 315 314 313 316 316 315 313 315 314 314 317 316 317 316 318 321 321 321 323 339 341 344 343 342 345 343 345
310 314 321 317 314 312 313 317 313 314 312 313 313 313 313 313 314 316 316 314 314 314 313 312 313 313 312 315 315 318 319 317 317 318 323 325 326 340 338 346 348 349 346 340 339
311 321 313 311 309 313 314 314 315 315 314 313 312 311 312 312 312 316 317 316 314 315 319 313 312 313 316 317 316 318 319 320 316 318 321 323 330 341 341 343 344 345 346 359 359
313 319 312 312 312 314 314 317 315 316 313 311 312 311 312 314 314 315 314 314 314 316 311 310 314 316 315 316 317 317 319 321 321 316 321 322 337 340 343 342 342 357 357 358 360
316 312 311 308 310 314 314 314 314 312 312 312 312 313 312 314 314 315 312 312 313 311 311 309 312 315 316 317 317 319 318 320 324 343 320 326 345 345 353 355 358 357 360 361 362
317 313 310 310 312 313 313 314 316 313 311 312 312 312 311 311 311 310 309 308 309 312 310 311 312 315 318 317 319 317 319 322 345 344 342 334 355 355 357 357 356 356 357 356 353
Wind_Speed
22 24 25 26 25 23 22 22 22 21 23 23 22 22 21 23 24 10 6 6 8 12 7 10 10 10 5 2 2 4 4 2 3 4 3 7 6 7 6 17 10 8 11 18 29
24 25 25 26 25 25 25 23 22 21 23 20 20 20 21 21 19 11 11 11 8 12 10 12 7 8 3 7 2 2 4 8 6 6 2 1 3 10 11 17 9 16 15 23 28
25 25 27 27 27 24 24 25 23 22 22 17 19 19 18 16 4 6 2 14 13 11 10 11 5 4 5 5 6 5 5 9 14 10 8 5 4 18 22 14 21 24 19 17 25
26 27 28 29 29 26 23 22 23 24 19 17 17 15 13 6 1 1 8 12 12 11 10 5 4 4 5 7 8 3 9 6 4 15 10 8 1 14 18 10 23 24 21 15 17
26 29 30 31 31 28 24 22 22 22 17 15 13 12 3 3 8 6 8 8 6 11 9 5 5 6 4 3 6 11 9 8 13 9 18 15 15 8 11 21 20 20 17 14 14
27 30 31 33 33 30 25 23 22 19 14 13 10 7 3 3 3 10 11 9 6 11 7 6 6 3 5 4 5 6 13 7 10 8 2 16 6 6 14 21 20 20 17 15 12
28 30 32 34 34 31 28 25 21 15 14 9 6 1 0 13 3 8 11 6 7 10 5 17 11 0 6 8 2 6 5 7 12 4 19 17 12 15 20 21 21 18 16 14 11
29 31 34 34 34 33 30 24 18 15 9 4 3 2 6 7 9 10 17 13 10 13 15 13 14 6 5 3 8 4 1 3 11 5 10 6 8 19 22 22 20 18 15 14 10
31 32 35 34 33 32 29 24 17 3 1 2 1 3 8 13 5 12 13 12 8 15 20 17 6 2 4 3 5 5 3 4 9 8 11 3 10 23 23 20 18 18 16 14 8
32 34 34 34 32 30 24 18 7 3 4 2 4 3 6 2 6 10 13 11 5 3 3 1 3 2 4 4 5 4 3 5 6 1 12 5 11 21 23 22 21 19 17 13 8
33 33 32 33 28 25 24 4 5 3 2 6 5 4 9 13 3 3 6 9 1 3 4 2 3 5 8 5 6 4 5 7 11 11 12 11 16 23 23 19 19 18 16 12 9
33 33 33 31 26 18 12 2 3 5 7 8 13 11 26 11 4 4 2 3 5 4 2 3 6 9 7 7 8 9 6 11 10 11 6 15 14 15 19 19 21 20 17 16 7
32 32 33 29 21 5 13 9 9 9 2 8 6 5 6 8 6 7 8 4 3 3 3 7 7 11 8 8 8 11 9 2 9 6 10 11 5 4 3 5 14 17 19 17 15
32 32 31 30 4 15 5 17 12 8 4 7 3 5 4 6 4 8 16 6 4 8 6 6 12 9 12 9 8 10 7 12 8 3 4 8 3 3 4 7 11 16 17 15 13
31 34 30 14 13 7 9 21 20 4 4 3 3 4 5 7 1 2 9 4 6 6 6 10 5 6 10 12 7 11 7 10 4 7 6 4 5 5 8 7 9 16 19 17 16
36 34 25 5 8 10 17 25 4 4 1 4 5 5 4 2 3 2 4 3 3 2 2 8 6 6 9 14 8 10 3 5 4 5 2 6 6 4 8 16 13 13 18 19 14
38 31 17 8 5 8 20 5 5 3 6 5 2 1 3 4 4 5 4 3 5 2 5 6 7 4 6 5 5 5 6 2 3 1 5 8 6 8 11 14 21 22 19 18 12
38 25 9 14 5 7 11 5 6 3 4 2 5 3 2 1 6 8 6 3 3 4 1 1 8 2 1 8 9 7 9 6 6 4 4 3 6 9 18 17 7 17 24 18 13
32 17 8 7 6 5 5 5 3 2 4 7 7 7 7 8 4 6 7 5 2 3 7 1 5 7 1 3 8 5 2 8 6 2 4 3 7 4 7 17 11 15 20 19 14
24 10 8 6 6 5 5 3 2 1 3 5 6 6 7 7 9 8 7 5 2 6 2 2 3 3 7 6 3 7 5 2 4 2 2 5 4 6 5 10 10 16 18 18 15
8 4 3 11 11 5 2 5 2 1 4 4 2 3 4 4 5 5 6 2 7 8 8 5 3 7 3 3 3 7 2 6 5 5 5 1 6 5 6 6 11 10 9 11 9
8 2 3 13 3 1 2 4 4 3 8 8 6 6 3 5 5 4 3 4 8 4 4 3 3 3 6 6 4 5 5 5 5 5 1 3 7 4 1 7 9 8 14 10 8
3 3 7 4 1 3 5 2 6 5 5 4 6 5 3 5 5 5 4 3 5 5 3 4 4 4 11 7 6 5 5 5 3 4 6 4 5 2 6 11 10 17 10 3 2
2 3 4 4 0 3 3 5 4 7 7 5 5 7 6 8 8 5 9 7 9 2 4 4 3 5 5 6 5 7 11 6 2 4 4 6 6 6 7 6 8 15 14 2 8
1 3 3 2 4 3 3 3 4 3 5 8 7 7 3 6 5 6 7 7 7 10 8 4 1 3 6 7 4 6 10 10 3 7 6 6 7 2 5 5 7 7 11 10 13
1 3 4 3 4 5 3 4 8 3 4 3 5 11 10 5 3 3 5 5 2 9 8 7 3 5 3 5 7 9 12 9 5 10 4 7 4 5 7 12 15 12 14 14 15
4 4 3 4 4 3 1 3 4 5 4 7 6 5 8 4 3 4 4 5 6 2 4 4 3 5 4 5 4 7 6 3 7 14 6 4 8 10 11 14 8 11 12 14 14
Wind_Direction
358 357 354 349 344 342 339 338 336 335 333 331 328 328 329 331 326 316 237 228 171 168 160 137 179 195 212 84 80 167 83 137 257 327 332 203 146 147 126 137 154 208 150 158 156
357 355 353 350 346 341 337 334 334 332 332 331 329 328 326 333 327 265 259 198 181 175 171 182 180 185 192 167 183 166 123 187 197 131 233 250 227 163 132 154 112 114 142 147 152
353 352 351 349 345 340 335 332 329 331 331 331 329 327 325 334 315 257 332 177 193 207 214 222 231 197 193 142 207 186 204 176 181 194 190 275 300 166 149 171 156 155 162 158 153
350 349 349 347 344 340 334 331 327 330 330 329 330 331 327 349 149 286 123 166 198 216 213 219 191 190 217 199 186 217 237 174 183 196 191 232 264 158 162 174 160 156 161 157 151
346 345 346 345 342 339 333 327 326 326 324 325 332 336 359 17 252 237 175 177 191 171 201 199 198 187 223 188 169 230 270 222 212 193 179 198 208 183 170 148 152 150 159 165 160
344 343 343 343 341 338 330 324 325 325 323 318 333 340 82 289 236 211 175 169 168 169 199 213 222 202 272 246 179 251 268 208 211 212 203 137 169 124 147 145 151 158 167 176 178
343 342 341 340 338 337 330 326 326 322 318 301 338 36 115 236 160 176 182 182 210 198 180 226 249 276 336 319 280 281 283 285 278 107 155 144 140 147 151 152 155 165 175 187 193
342 341 339 339 338 336 330 327 322 312 307 274 5 155 245 276 288 275 209 275 238 231 230 237 256 259 210 290 345 346 66 193 259 102 159 128 160 151 155 160 164 167 184 194 197
342 341 338 337 337 335 328 329 317 307 277 201 173 196 271 313 250 236 238 228 256 244 237 255 271 249 337 27 360 358 234 250 305 156 169 136 152 164 166 163 166 176 189 197 199
342 339 338 336 337 336 330 342 3 106 124 75 268 297 280 256 232 232 223 230 236 253 314 120 36 34 17 87 220 228 217 289 243 42 157 174 162 169 169 169 173 182 188 198 182
342 340 338 335 338 336 339 9 13 3 172 202 203 249 293 328 302 112 206 233 9 84 179 209 99 205 235 214 241 268 293 281 301 296 187 178 159 170 176 174 176 185 194 198 178
343 342 339 333 335 328 335 14 204 253 308 242 245 243 257 257 291 303 202 141 136 199 210 18 201 224 224 250 251 265 277 286 287 285 135 164 167 172 175 181 180 188 199 185 169
343 342 339 331 329 360 320 282 325 350 9 295 226 214 226 157 210 258 142 165 181 229 199 186 228 222 225 252 239 259 234 258 243 348 64 107 34 74 108 137 186 195 197 184 176
342 341 339 333 338 335 275 346 341 346 50 281 213 260 149 140 269 213 187 152 182 206 226 216 246 206 235 243 190 245 228 236 248 161 168 147 240 226 245 175 184 190 199 192 177
340 339 335 333 307 303 325 338 335 51 53 195 219 192 145 143 329 318 158 91 194 230 103 249 224 206 236 239 194 242 222 232 171 202 132 318 110 224 154 223 217 193 188 192 190
336 337 329 298 289 282 324 329 343 47 21 203 158 190 97 257 270 331 140 104 141 236 142 225 253 194 221 248 232 252 279 50 44 108 126 202 136 247 173 213 211 201 194 187 196
334 337 312 260 231 300 323 5 54 100 334 6 330 192 172 233 276 178 193 181 167 54 326 323 280 262 195 255 307 186 75 307 353 55 201 210 128 225 221 204 200 198 196 201 195
332 334 312 273 264 300 346 55 71 303 342 348 354 4 103 141 242 209 148 210 281 90 108 207 316 7 297 185 207 209 154 154 183 183 224 131 217 245 223 225 206 204 186 195 196
333 335 297 242 241 250 62 62 217 20 335 352 351 34 357 350 324 8 159 347 88 134 159 108 271 304 142 298 153 229 127 186 120 107 88 249 279 325 237 226 178 185 185 191 205
326 325 279 186 228 108 69 236 191 48 357 33 46 45 19 333 12 19 18 327 349 16 112 233 326 280 307 360 4 160 168 88 13 189 211 278 289 245 254 227 166 175 185 197 205
329 348 212 183 175 60 147 235 122 134 98 88 55 10 9 360 353 24 354 6 1 331 58 3 102 290 13 44 11 335 46 67 114 134 166 230 272 279 217 118 129 161 187 193 187
342 349 224 168 45 157 202 211 121 50 38 38 65 53 37 13 17 49 46 58 342 339 33 344 125 294 248 274 281 223 236 157 126 269 202 178 275 327 149 100 98 122 176 195 214
339 271 319 195 86 324 301 3 60 40 44 57 31 28 29 22 16 28 56 48 21 51 73 321 10 7 339 3 358 13 339 292 127 98 209 132 268 282 314 119 115 92 72 354 236
350 347 326 47 311 135 51 1 110 41 60 66 29 38 28 24 18 41 12 338 341 94 170 79 93 135 177 219 254 305 320 330 171 128 188 205 229 242 246 174 151 131 122 28 93
204 272 193 319 331 22 51 53 85 71 57 29 30 52 42 32 33 16 4 340 350 10 335 83 239 198 235 260 296 284 304 320 297 226 160 228 213 220 0 356 7 23 105 102 53
336 28 344 286 316 13 48 19 122 69 80 28 69 74 63 81 110 321 19 27 344 338 357 355 301 349 291 292 336 311 306 310 349 349 215 133 46 158 112 71 47 36 49 54 60
320 331 105 287 343 76 236 107 78 123 50 97 88 82 51 358 313 247 228 236 217 292 322 12 44 24 291 329 1 322 350 26 83 23 331 150 153 137 89 81 65 59 43 43 40